| time (UTC) | temp C | wind direction | speed KPH | gust KPH | rain 1hr cm | rain 24hr cm | rain mn cm | humidity % | barometer mb |
| 20260506232436 | 19 | 70 | 0.0 | 0.0 | 0.00 | 0.00 | 0.00 | 44 | 1012.1 |
| 20260506231932 | 19 | 56 | 1.6 | 1.6 | 0.00 | 0.00 | 0.00 | 45 | 1012.3 |
| 20260506231430 | 19 | 190 | 1.6 | 1.6 | 0.00 | 0.00 | 0.00 | 43 | 1012.8 |
| 20260506230926 | 18 | 130 | 1.6 | 1.6 | 0.00 | 0.00 | 0.00 | 44 | 1012.6 |
| 20260506230423 | 18 | 46 | 0.0 | 0.0 | 0.00 | 0.00 | 0.00 | 45 | 1012.9 |
| 20260506225920 | 18 | 57 | 0.0 | 0.0 | 0.00 | 0.00 | 0.00 | 45 | 1012.9 |
| 20260506225417 | 20 | 62 | 0.0 | 0.0 | 0.00 | 0.00 | 0.00 | 45 | 1013.0 |
| 20260506224914 | 20 | 2 | 1.6 | 1.6 | 0.00 | 0.00 | 0.00 | 41 | 1013.0 |
| 20260506224411 | 19 | 82 | 0.0 | 0.0 | 0.00 | 0.00 | 0.00 | 45 | 1013.1 |
| 20260506223907 | 18 | 55 | 0.0 | 0.0 | 0.00 | 0.00 | 0.00 | 43 | 1013.2 |
| 20260506223403 | 19 | 57 | 0.0 | 0.0 | 0.00 | 0.00 | 0.00 | 44 | 1013.4 |
| 20260506222900 | 19 | 66 | 0.0 | 1.6 | 0.00 | 0.00 | 0.00 | 41 | 1013.3 |
| 20260506222356 | 18 | 64 | 0.0 | 0.0 | 0.00 | 0.00 | 0.00 | 46 | 1013.4 |
| 20260506221854 | 18 | 62 | 0.0 | 0.0 | 0.00 | 0.00 | 0.00 | 46 | 1013.5 |
| 20260506221351 | 20 | 80 | 0.0 | 0.0 | 0.00 | 0.00 | 0.00 | 44 | 1013.5 |
| 20260506220848 | 21 | 45 | 0.0 | 0.0 | 0.00 | 0.00 | 0.00 | 41 | 1013.8 |
| 20260506220343 | 20 | 100 | 0.0 | 1.6 | 0.00 | 0.00 | 0.00 | 39 | 1013.7 |
| 20260506215841 | 18 | 211 | 3.2 | 3.2 | 0.00 | 0.00 | 0.00 | 41 | 1013.9 |
| 20260506215336 | 17 | 67 | 0.0 | 1.6 | 0.00 | 0.00 | 0.00 | 48 | 1013.9 |
| 20260506214832 | 17 | 76 | 0.0 | 1.6 | 0.00 | 0.00 | 0.00 | 47 | 1014.1 |
| 20260506214329 | 17 | 62 | 0.0 | 0.0 | 0.00 | 0.00 | 0.00 | 47 | 1014.1 |
| 20260506213828 | 17 | 73 | 0.0 | 1.6 | 0.00 | 0.00 | 0.00 | 45 | 1014.3 |
| 20260506213325 | 17 | 70 | 0.0 | 1.6 | 0.00 | 0.00 | 0.00 | 46 | 1014.3 |
| 20260506212822 | 17 | 41 | 1.6 | 3.2 | 0.00 | 0.00 | 0.00 | 44 | 1014.3 |
| 20260506212317 | 19 | 67 | 0.0 | 1.6 | 0.00 | 0.00 | 0.00 | 42 | 1014.6 |
| 20260506211813 | 19 | 75 | 0.0 | 0.0 | 0.00 | 0.00 | 0.00 | 40 | 1014.8 |
| 20260506211309 | 18 | 111 | 1.6 | 1.6 | 0.00 | 0.00 | 0.00 | 41 | 1014.7 |
| 20260506210807 | 19 | 177 | 1.6 | 1.6 | 0.00 | 0.00 | 0.00 | 38 | 1014.9 |
| 20260506210303 | 18 | 53 | 0.0 | 1.6 | 0.00 | 0.00 | 0.00 | 41 | 1014.8 |
| 20260506205800 | 18 | 178 | 1.6 | 1.6 | 0.00 | 0.00 | 0.00 | 39 | 1014.9 |
| 20260506205256 | 18 | 154 | 1.6 | 1.6 | 0.00 | 0.00 | 0.00 | 42 | 1014.7 |
| 20260506204753 | 18 | 67 | 1.6 | 1.6 | 0.00 | 0.00 | 0.00 | 45 | 1014.9 |
| 20260506204251 | 18 | 202 | 3.2 | 3.2 | 0.00 | 0.00 | 0.00 | 42 | 1015.2 |
| 20260506203748 | 18 | 202 | 1.6 | 3.2 | 0.00 | 0.00 | 0.00 | 41 | 1015.2 |
| 20260506203245 | 18 | 45 | 0.0 | 1.6 | 0.00 | 0.00 | 0.00 | 44 | 1015.2 |
| 20260506202742 | 18 | 73 | 0.0 | 0.0 | 0.00 | 0.00 | 0.00 | 41 | 1015.3 |
| 20260506202239 | 17 | 131 | 1.6 | 1.6 | 0.00 | 0.00 | 0.00 | 42 | 1015.6 |
| 20260506201735 | 18 | 326 | 1.6 | 3.2 | 0.00 | 0.00 | 0.00 | 44 | 1015.4 |
| 20260506201232 | 17 | 166 | 3.2 | 3.2 | 0.00 | 0.00 | 0.00 | 43 | 1015.5 |
| 20260506200729 | 17 | 117 | 0.0 | 1.6 | 0.00 | 0.00 | 0.00 | 47 | 1015.4 |
| 20260506200226 | 17 | 107 | 3.2 | 3.2 | 0.00 | 0.00 | 0.00 | 46 | 1015.5 |
| 20260506195722 | 17 | 221 | 4.8 | 4.8 | 0.00 | 0.00 | 0.00 | 44 | 1015.7 |
| 20260506195219 | 16 | 50 | 0.0 | 1.6 | 0.00 | 0.00 | 0.00 | 46 | 1015.5 |
| 20260506194716 | 17 | 66 | 0.0 | 0.0 | 0.00 | 0.00 | 0.00 | 47 | 1015.8 |
| 20260506194212 | 16 | 71 | 0.0 | 0.0 | 0.00 | 0.00 | 0.00 | 48 | 1015.8 |
| 20260506193710 | 16 | 68 | 0.0 | 0.0 | 0.00 | 0.00 | 0.00 | 49 | 1015.8 |
| 20260506193207 | 17 | 60 | 0.0 | 0.0 | 0.00 | 0.00 | 0.00 | 48 | 1015.7 |
| 20260506192658 | 17 | 210 | 1.6 | 3.2 | 0.00 | 0.00 | 0.00 | 47 | 1015.9 |
| 20260506192154 | 16 | 59 | 1.6 | 1.6 | 0.00 | 0.00 | 0.00 | 50 | 1016.0 |
| 20260506191652 | 15 | 24 | 1.6 | 1.6 | 0.00 | 0.00 | 0.00 | 47 | 1016.0 |
| 20260506191147 | 15 | 21 | 0.0 | 1.6 | 0.00 | 0.00 | 0.00 | 50 | 1016.1 |
| 20260506190645 | 15 | 335 | 3.2 | 3.2 | 0.00 | 0.00 | 0.00 | 50 | 1016.0 |
| 20260506190141 | 15 | 32 | 3.2 | 3.2 | 0.00 | 0.00 | 0.00 | 50 | 1016.3 |
| 20260506185639 | 15 | 38 | 0.0 | 1.6 | 0.00 | 0.00 | 0.00 | 50 | 1016.2 |
| 20260506185134 | 16 | 61 | 3.2 | 4.8 | 0.00 | 0.00 | 0.00 | 49 | 1016.3 |
| 20260506184632 | 16 | 49 | 0.0 | 0.0 | 0.00 | 0.00 | 0.00 | 46 | 1016.3 |
| 20260506184130 | 16 | 62 | 0.0 | 0.0 | 0.00 | 0.00 | 0.00 | 48 | 1016.3 |
| 20260506183626 | 16 | 36 | 1.6 | 1.6 | 0.00 | 0.00 | 0.00 | 47 | 1016.3 |
| 20260506183122 | 15 | 216 | 1.6 | 1.6 | 0.00 | 0.00 | 0.00 | 48 | 1016.6 |
| 20260506182620 | 15 | 38 | 1.6 | 3.2 | 0.00 | 0.00 | 0.00 | 51 | 1016.2 |
| 20260506182116 | 15 | 47 | 0.0 | 1.6 | 0.00 | 0.00 | 0.00 | 49 | 1016.6 |
| 20260506181615 | 15 | 103 | 0.0 | 1.6 | 0.00 | 0.00 | 0.00 | 48 | 1017.0 |
| 20260506181111 | 15 | 84 | 1.6 | 3.2 | 0.00 | 0.00 | 0.00 | 52 | 1016.7 |
| 20260506180608 | 14 | 194 | 3.2 | 3.2 | 0.00 | 0.00 | 0.00 | 51 | 1016.7 |
| 20260506180105 | 14 | 169 | 1.6 | 1.6 | 0.00 | 0.00 | 0.00 | 53 | 1016.9 |
| 20260506175601 | 13 | 64 | 0.0 | 0.0 | 0.00 | 0.00 | 0.00 | 58 | 1016.8 |
| 20260506175057 | 13 | 59 | 1.6 | 1.6 | 0.00 | 0.00 | 0.00 | 56 | 1017.0 |
| 20260506174556 | 13 | 64 | 0.0 | 1.6 | 0.00 | 0.00 | 0.00 | 55 | 1017.2 |
| 20260506174052 | 14 | 41 | 3.2 | 3.2 | 0.00 | 0.00 | 0.00 | 55 | 1017.1 |
| 20260506173550 | 13 | 84 | 0.0 | 0.0 | 0.00 | 0.00 | 0.00 | 58 | 1017.1 |
| 20260506173046 | 13 | 31 | 1.6 | 3.2 | 0.00 | 0.00 | 0.00 | 53 | 1017.4 |
| 20260506172544 | 13 | 52 | 3.2 | 3.2 | 0.00 | 0.00 | 0.00 | 52 | 1017.7 |
| 20260506172040 | 13 | 27 | 3.2 | 4.8 | 0.00 | 0.00 | 0.00 | 54 | 1017.5 |
| 20260506171537 | 13 | 79 | 0.0 | 1.6 | 0.00 | 0.00 | 0.00 | 53 | 1017.7 |
| 20260506171034 | 13 | 66 | 0.0 | 1.6 | 0.00 | 0.00 | 0.00 | 53 | 1017.7 |
| 20260506170532 | 13 | 75 | 0.0 | 0.0 | 0.00 | 0.00 | 0.00 | 55 | 1017.8 |
| 20260506170029 | 13 | 47 | 1.6 | 1.6 | 0.00 | 0.00 | 0.00 | 53 | 1017.7 |
| 20260506165527 | 13 | 80 | 0.0 | 0.0 | 0.00 | 0.00 | 0.00 | 53 | 1017.8 |
| 20260506165018 | 13 | 65 | 0.0 | 0.0 | 0.00 | 0.00 | 0.00 | 53 | 1017.8 |
| 20260506164515 | 12 | 34 | 1.6 | 1.6 | 0.00 | 0.00 | 0.00 | 54 | 1018.0 |
| 20260506164012 | 12 | 49 | 1.6 | 3.2 | 0.00 | 0.00 | 0.00 | 60 | 1017.9 |
| 20260506163508 | 12 | 69 | 3.2 | 3.2 | 0.00 | 0.00 | 0.00 | 57 | 1018.0 |
| 20260506163004 | 13 | 29 | 1.6 | 3.2 | 0.00 | 0.00 | 0.00 | 59 | 1018.0 |
| 20260506162500 | 12 | 36 | 1.6 | 1.6 | 0.00 | 0.00 | 0.00 | 55 | 1018.1 |
| 20260506161957 | 12 | 48 | 1.6 | 1.6 | 0.00 | 0.00 | 0.00 | 57 | 1018.1 |
| 20260506161455 | 12 | 77 | 1.6 | 1.6 | 0.00 | 0.00 | 0.00 | 56 | 1018.3 |
| 20260506160952 | 12 | 63 | 0.0 | 1.6 | 0.00 | 0.00 | 0.00 | 57 | 1018.2 |
| 20260506160449 | 11 | 126 | 1.6 | 3.2 | 0.00 | 0.00 | 0.00 | 57 | 1018.3 |
| 20260506155947 | 11 | 21 | 1.6 | 1.6 | 0.00 | 0.00 | 0.00 | 57 | 1018.6 |
| 20260506155444 | 11 | 85 | 1.6 | 1.6 | 0.00 | 0.00 | 0.00 | 58 | 1018.8 |
| 20260506153611 | 11 | 61 | 1.6 | 1.6 | 0.00 | 0.00 | 0.00 | 63 | 1019.0 |
| 20260506153108 | 11 | 101 | 3.2 | 3.2 | 0.00 | 0.00 | 0.00 | 60 | 1018.9 |
| 20260506152605 | 11 | 72 | 3.2 | 3.2 | 0.00 | 0.00 | 0.00 | 61 | 1019.0 |
| 20260506152103 | 11 | 64 | 0.0 | 1.6 | 0.00 | 0.00 | 0.00 | 59 | 1019.0 |
| 20260506151601 | 12 | 60 | 1.6 | 1.6 | 0.00 | 0.00 | 0.00 | 63 | 1019.0 |
| 20260506151058 | 12 | 70 | 0.0 | 0.0 | 0.00 | 0.00 | 0.00 | 61 | 1019.1 |
| 20260506150554 | 10 | 12 | 1.6 | 3.2 | 0.00 | 0.00 | 0.00 | 66 | 1019.1 |
| 20260506150051 | 10 | 2 | 0.0 | 1.6 | 0.00 | 0.00 | 0.00 | 64 | 1019.4 |
| 20260506145548 | 11 | 8 | 3.2 | 4.8 | 0.00 | 0.00 | 0.00 | 63 | 1019.2 |
| 20260506145045 | 11 | 58 | 0.0 | 0.0 | 0.00 | 0.00 | 0.00 | 64 | 1019.3 |
| 20260506144542 | 11 | 23 | 1.6 | 1.6 | 0.00 | 0.00 | 0.00 | 64 | 1019.3 |
| 20260506144039 | 11 | 47 | 1.6 | 1.6 | 0.00 | 0.00 | 0.00 | 66 | 1019.3 |
| 20260506143537 | 10 | 19 | 1.6 | 3.2 | 0.00 | 0.00 | 0.00 | 66 | 1019.4 |
| 20260506143035 | 10 | 355 | 0.0 | 1.6 | 0.00 | 0.00 | 0.00 | 65 | 1019.3 |
| 20260506142532 | 10 | 15 | 1.6 | 1.6 | 0.00 | 0.00 | 0.00 | 64 | 1019.3 |
| 20260506142031 | 10 | 48 | 1.6 | 1.6 | 0.00 | 0.00 | 0.00 | 68 | 1019.5 |
| 20260506141528 | 9 | 359 | 0.0 | 0.0 | 0.00 | 0.00 | 0.00 | 68 | 1019.4 |
| 20260506141026 | 9 | 0 | 0.0 | 0.0 | 0.00 | 0.00 | 0.00 | 71 | 1019.3 |
| 20260506140523 | 8 | 359 | 0.0 | 1.6 | 0.00 | 0.00 | 0.00 | 70 | 1019.3 |
| 20260506140021 | 8 | 2 | 1.6 | 1.6 | 0.00 | 0.00 | 0.00 | 75 | 1019.2 |
| 20260506135517 | 9 | 2 | 0.0 | 0.0 | 0.00 | 0.00 | 0.00 | 73 | 1019.1 |
| 20260506135014 | 7 | 0 | 0.0 | 0.0 | 0.00 | 0.00 | 0.00 | 78 | 1019.3 |
| 20260506134510 | 7 | 358 | 0.0 | 0.0 | 0.00 | 0.00 | 0.00 | 81 | 1019.4 |
| 20260506134006 | 6 | 357 | 0.0 | 0.0 | 0.00 | 0.00 | 0.00 | 85 | 1019.2 |
| 20260506133504 | 5 | 356 | 0.0 | 0.0 | 0.00 | 0.00 | 0.00 | 85 | 1019.3 |
| 20260506133000 | 5 | 356 | 0.0 | 0.0 | 0.00 | 0.00 | 0.00 | 86 | 1019.3 |
| 20260506132457 | 5 | 352 | 0.0 | 0.0 | 0.00 | 0.00 | 0.00 | 86 | 1019.2 |
| 20260506131955 | 5 | 350 | 0.0 | 0.0 | 0.00 | 0.00 | 0.00 | 86 | 1019.4 |
| 20260506131451 | 5 | 347 | 0.0 | 0.0 | 0.00 | 0.00 | 0.00 | 86 | 1019.2 |
| 20260506130948 | 5 | 346 | 0.0 | 0.0 | 0.00 | 0.00 | 0.00 | 86 | 1019.2 |
| 20260506130445 | 5 | 346 | 0.0 | 0.0 | 0.00 | 0.00 | 0.00 | 85 | 1018.9 |
| 20260506125942 | 5 | 346 | 0.0 | 0.0 | 0.00 | 0.00 | 0.00 | 86 | 1018.9 |
| 20260506125441 | 5 | 344 | 1.6 | 1.6 | 0.00 | 0.00 | 0.00 | 85 | 1019.4 |
| 20260506124938 | 5 | 346 | 0.0 | 0.0 | 0.00 | 0.00 | 0.00 | 85 | 1019.2 |
| 20260506124436 | 5 | 344 | 0.0 | 0.0 | 0.00 | 0.00 | 0.00 | 86 | 1019.0 |
| 20260506123934 | 4 | 343 | 0.0 | 0.0 | 0.00 | 0.00 | 0.00 | 85 | 1019.0 |
| 20260506123431 | 4 | 343 | 0.0 | 0.0 | 0.00 | 0.00 | 0.00 | 85 | 1018.9 |
| 20260506122928 | 5 | 343 | 0.0 | 0.0 | 0.00 | 0.00 | 0.00 | 83 | 1018.9 |
| 20260506122425 | 5 | 343 | 0.0 | 0.0 | 0.00 | 0.00 | 0.00 | 84 | 1018.7 |
| 20260506121924 | 5 | 343 | 0.0 | 0.0 | 0.00 | 0.00 | 0.00 | 84 | 1018.9 |
| 20260506121420 | 5 | 344 | 0.0 | 0.0 | 0.00 | 0.00 | 0.00 | 83 | 1018.6 |
| 20260506120917 | 5 | 346 | 0.0 | 0.0 | 0.00 | 0.00 | 0.00 | 82 | 1018.6 |
| 20260506120415 | 5 | 350 | 0.0 | 0.0 | 0.00 | 0.00 | 0.00 | 81 | 1018.5 |
| 20260506115912 | 5 | 336 | 0.0 | 0.0 | 0.00 | 0.00 | 0.00 | 83 | 1018.6 |
| 20260506115410 | 5 | 340 | 1.6 | 1.6 | 0.00 | 0.00 | 0.00 | 81 | 1018.5 |
| 20260506114908 | 5 | 339 | 0.0 | 0.0 | 0.00 | 0.00 | 0.00 | 80 | 1018.5 |
| 20260506114405 | 5 | 338 | 0.0 | 0.0 | 0.00 | 0.00 | 0.00 | 82 | 1018.3 |
| 20260506113904 | 5 | 339 | 0.0 | 0.0 | 0.00 | 0.00 | 0.00 | 83 | 1018.7 |
| 20260506113401 | 5 | 351 | 0.0 | 0.0 | 0.00 | 0.00 | 0.00 | 83 | 1018.7 |
| 20260506112857 | 5 | 352 | 0.0 | 0.0 | 0.00 | 0.00 | 0.00 | 83 | 1018.6 |
| 20260506112355 | 5 | 353 | 0.0 | 0.0 | 0.00 | 0.00 | 0.00 | 82 | 1018.7 |
| 20260506111852 | 5 | 353 | 0.0 | 0.0 | 0.00 | 0.00 | 0.00 | 82 | 1018.5 |
| 20260506111350 | 5 | 354 | 0.0 | 0.0 | 0.00 | 0.00 | 0.00 | 82 | 1018.3 |
| 20260506110847 | 5 | 356 | 0.0 | 1.6 | 0.00 | 0.00 | 0.00 | 82 | 1018.1 |
| 20260506110344 | 5 | 356 | 0.0 | 0.0 | 0.00 | 0.00 | 0.00 | 81 | 1018.3 |
| 20260506105841 | 5 | 356 | 0.0 | 0.0 | 0.00 | 0.00 | 0.00 | 81 | 1018.2 |
| 20260506105338 | 5 | 356 | 0.0 | 0.0 | 0.00 | 0.00 | 0.00 | 82 | 1018.2 |
| 20260506104835 | 5 | 356 | 0.0 | 1.6 | 0.00 | 0.00 | 0.00 | 81 | 1018.1 |
| 20260506104332 | 5 | 356 | 0.0 | 0.0 | 0.00 | 0.00 | 0.00 | 80 | 1018.2 |
| 20260506103830 | 5 | 356 | 0.0 | 0.0 | 0.00 | 0.00 | 0.00 | 78 | 1018.1 |
| 20260506103328 | 5 | 356 | 0.0 | 0.0 | 0.00 | 0.00 | 0.00 | 79 | 1018.3 |
| 20260506102825 | 5 | 358 | 0.0 | 0.0 | 0.00 | 0.00 | 0.00 | 78 | 1018.3 |
| 20260506102323 | 5 | 358 | 0.0 | 0.0 | 0.00 | 0.00 | 0.00 | 79 | 1018.2 |
| 20260506101820 | 5 | 358 | 0.0 | 1.6 | 0.00 | 0.00 | 0.00 | 80 | 1018.2 |
| 20260506101315 | 5 | 358 | 0.0 | 0.0 | 0.00 | 0.00 | 0.00 | 76 | 1018.0 |
| 20260506100814 | 5 | 358 | 0.0 | 0.0 | 0.00 | 0.00 | 0.00 | 79 | 1017.9 |
| 20260506100312 | 5 | 359 | 0.0 | 0.0 | 0.00 | 0.00 | 0.00 | 79 | 1018.0 |
| 20260506095810 | 6 | 359 | 0.0 | 0.0 | 0.00 | 0.00 | 0.00 | 78 | 1018.0 |
| 20260506095306 | 6 | 359 | 1.6 | 1.6 | 0.00 | 0.00 | 0.00 | 78 | 1018.0 |
| 20260506094803 | 6 | 358 | 0.0 | 0.0 | 0.00 | 0.00 | 0.00 | 78 | 1018.2 |
| 20260506094302 | 6 | 358 | 0.0 | 1.6 | 0.00 | 0.00 | 0.00 | 79 | 1018.1 |
| 20260506093800 | 6 | 0 | 0.0 | 1.6 | 0.00 | 0.00 | 0.00 | 77 | 1018.5 |
| 20260506093256 | 6 | 1 | 0.0 | 1.6 | 0.00 | 0.00 | 0.00 | 77 | 1018.1 |
| 20260506092755 | 6 | 1 | 0.0 | 0.0 | 0.00 | 0.00 | 0.00 | 76 | 1018.1 |
| 20260506092252 | 6 | 1 | 0.0 | 0.0 | 0.00 | 0.00 | 0.00 | 77 | 1018.0 |
| 20260506091749 | 6 | 3 | 0.0 | 0.0 | 0.00 | 0.00 | 0.00 | 78 | 1018.2 |
| 20260506091247 | 6 | 3 | 1.6 | 1.6 | 0.00 | 0.00 | 0.00 | 77 | 1018.1 |
| 20260506090744 | 6 | 3 | 0.0 | 0.0 | 0.00 | 0.00 | 0.00 | 73 | 1018.0 |
| 20260506090241 | 6 | 3 | 0.0 | 0.0 | 0.00 | 0.00 | 0.00 | 75 | 1017.9 |
| 20260506085738 | 6 | 4 | 1.6 | 1.6 | 0.00 | 0.00 | 0.00 | 76 | 1017.9 |
| 20260506085234 | 7 | 4 | 0.0 | 1.6 | 0.00 | 0.00 | 0.00 | 74 | 1017.7 |
| 20260506084731 | 7 | 8 | 1.6 | 1.6 | 0.00 | 0.00 | 0.00 | 75 | 1017.7 |
| 20260506084227 | 7 | 8 | 0.0 | 1.6 | 0.00 | 0.00 | 0.00 | 75 | 1017.9 |
| 20260506083724 | 7 | 7 | 1.6 | 1.6 | 0.00 | 0.00 | 0.00 | 75 | 1017.8 |
| 20260506083222 | 7 | 9 | 0.0 | 0.0 | 0.00 | 0.00 | 0.00 | 75 | 1017.8 |
| 20260506082719 | 7 | 7 | 0.0 | 0.0 | 0.00 | 0.00 | 0.00 | 71 | 1017.6 |
| 20260506082214 | 7 | 28 | 0.0 | 0.0 | 0.00 | 0.00 | 0.00 | 70 | 1017.8 |
| 20260506081713 | 7 | 18 | 0.0 | 0.0 | 0.00 | 0.00 | 0.00 | 69 | 1017.9 |
| 20260506081210 | 7 | 18 | 0.0 | 0.0 | 0.00 | 0.00 | 0.00 | 69 | 1017.6 |
| 20260506080708 | 7 | 18 | 0.0 | 0.0 | 0.00 | 0.00 | 0.00 | 68 | 1017.7 |
| 20260506080204 | 7 | 18 | 0.0 | 0.0 | 0.00 | 0.00 | 0.00 | 68 | 1017.7 |
| 20260506073148 | 8 | 21 | 0.0 | 0.0 | 0.00 | 0.00 | 0.00 | 68 | 1017.3 |
| 20260506072644 | 8 | 27 | 1.6 | 1.6 | 0.00 | 0.00 | 0.00 | 68 | 1017.2 |
| 20260506072142 | 8 | 64 | 0.0 | 0.0 | 0.00 | 0.00 | 0.00 | 67 | 1017.0 |
| 20260506071640 | 8 | 21 | 0.0 | 0.0 | 0.00 | 0.00 | 0.00 | 66 | 1017.0 |
| 20260506071137 | 8 | 71 | 0.0 | 0.0 | 0.00 | 0.00 | 0.00 | 61 | 1017.0 |
| 20260506070634 | 8 | 80 | 0.0 | 0.0 | 0.00 | 0.00 | 0.00 | 65 | 1016.9 |
| 20260506070131 | 8 | 22 | 0.0 | 0.0 | 0.00 | 0.00 | 0.00 | 66 | 1016.9 |
| 20260506062109 | 10 | 17 | 0.0 | 0.0 | 0.00 | 0.00 | 0.00 | 62 | 1016.6 |
| 20260506061604 | 10 | 84 | 0.0 | 0.0 | 0.00 | 0.00 | 0.00 | 57 | 1016.3 |
| 20260506061102 | 10 | 63 | 0.0 | 0.0 | 0.00 | 0.00 | 0.00 | 63 | 1016.2 |
| 20260506060601 | 10 | 52 | 0.0 | 0.0 | 0.00 | 0.00 | 0.00 | 60 | 1016.2 |
| 20260506051029 | 11 | 69 | 0.0 | 1.6 | 0.00 | 0.00 | 0.00 | 53 | 1015.9 |
| 20260506050527 | 12 | 184 | 1.6 | 1.6 | 0.00 | 0.00 | 0.00 | 53 | 1015.8 |
| 20260506045017 | 12 | 76 | 0.0 | 0.0 | 0.00 | 0.00 | 0.00 | 49 | 1015.8 |
| 20260506044516 | 12 | 69 | 0.0 | 0.0 | 0.00 | 0.00 | 0.00 | 54 | 1015.8 |
| 20260506044012 | 12 | 98 | 1.6 | 1.6 | 0.00 | 0.00 | 0.00 | 54 | 1015.7 |
| 20260506043509 | 12 | 81 | 0.0 | 0.0 | 0.00 | 0.00 | 0.00 | 53 | 1015.6 |
| 20260506043007 | 12 | 90 | 0.0 | 0.0 | 0.00 | 0.00 | 0.00 | 54 | 1015.5 |
| 20260506042506 | 12 | 132 | 1.6 | 1.6 | 0.00 | 0.00 | 0.00 | 55 | 1015.4 |
| 20260506042003 | 12 | 114 | 1.6 | 1.6 | 0.00 | 0.00 | 0.00 | 52 | 1015.4 |
| 20260506041502 | 12 | 70 | 0.0 | 0.0 | 0.00 | 0.00 | 0.00 | 53 | 1015.3 |
| 20260506040958 | 12 | 70 | 0.0 | 0.0 | 0.00 | 0.00 | 0.00 | 53 | 1015.4 |
| 20260506040456 | 12 | 99 | 0.0 | 0.0 | 0.00 | 0.00 | 0.00 | 50 | 1015.4 |
| 20260506035952 | 12 | 70 | 0.0 | 0.0 | 0.00 | 0.00 | 0.00 | 52 | 1015.2 |
| 20260506035449 | 13 | 85 | 0.0 | 0.0 | 0.00 | 0.00 | 0.00 | 50 | 1015.2 |
| 20260506034945 | 13 | 26 | 3.2 | 3.2 | 0.00 | 0.00 | 0.00 | 51 | 1015.4 |
| 20260506034443 | 13 | 104 | 0.0 | 1.6 | 0.00 | 0.00 | 0.00 | 51 | 1015.1 |
| 20260506033940 | 13 | 91 | 0.0 | 0.0 | 0.00 | 0.00 | 0.00 | 47 | 1015.0 |
| 20260506033438 | 13 | 41 | 1.6 | 1.6 | 0.00 | 0.00 | 0.00 | 50 | 1014.8 |
| 20260506032934 | 14 | 93 | 0.0 | 0.0 | 0.00 | 0.00 | 0.00 | 47 | 1014.6 |
| 20260506032431 | 14 | 26 | 3.2 | 3.2 | 0.00 | 0.00 | 0.00 | 46 | 1014.8 |
| 20260506031927 | 15 | 86 | 0.0 | 0.0 | 0.00 | 0.00 | 0.00 | 45 | 1014.9 |
| 20260506031425 | 15 | 104 | 1.6 | 1.6 | 0.00 | 0.00 | 0.00 | 47 | 1014.8 |
| 20260506030923 | 15 | 145 | 0.0 | 1.6 | 0.00 | 0.00 | 0.00 | 45 | 1014.8 |
| 20260506030420 | 15 | 10 | 1.6 | 1.6 | 0.00 | 0.00 | 0.00 | 46 | 1014.7 |
| 20260506025917 | 15 | 221 | 1.6 | 1.6 | 0.00 | 0.00 | 0.00 | 45 | 1014.6 |
| 20260506025414 | 15 | 104 | 0.0 | 1.6 | 0.00 | 0.00 | 0.00 | 45 | 1014.4 |
| 20260506024911 | 15 | 65 | 0.0 | 0.0 | 0.00 | 0.00 | 0.00 | 44 | 1014.6 |
| 20260506024408 | 15 | 68 | 0.0 | 0.0 | 0.00 | 0.00 | 0.00 | 43 | 1014.2 |
| 20260506023904 | 16 | 82 | 0.0 | 0.0 | 0.00 | 0.00 | 0.00 | 43 | 1014.7 |
| 20260506023401 | 16 | 60 | 0.0 | 0.0 | 0.00 | 0.00 | 0.00 | 41 | 1014.6 |
| 20260506022857 | 16 | 113 | 0.0 | 1.6 | 0.00 | 0.00 | 0.00 | 40 | 1014.2 |
| 20260506022356 | 16 | 2 | 1.6 | 3.2 | 0.00 | 0.00 | 0.00 | 40 | 1014.3 |
| 20260506021853 | 16 | 83 | 1.6 | 1.6 | 0.00 | 0.00 | 0.00 | 42 | 1014.2 |
| 20260506021349 | 16 | 77 | 1.6 | 1.6 | 0.00 | 0.00 | 0.00 | 43 | 1014.1 |
| 20260506020846 | 16 | 185 | 1.6 | 3.2 | 0.00 | 0.00 | 0.00 | 40 | 1014.4 |
| 20260506020345 | 16 | 92 | 0.0 | 0.0 | 0.00 | 0.00 | 0.00 | 42 | 1014.3 |
| 20260506015841 | 16 | 92 | 0.0 | 0.0 | 0.00 | 0.00 | 0.00 | 39 | 1014.3 |
| 20260506015339 | 16 | 92 | 0.0 | 0.0 | 0.00 | 0.00 | 0.00 | 43 | 1014.2 |
| 20260506014835 | 16 | 47 | 0.0 | 0.0 | 0.00 | 0.00 | 0.00 | 44 | 1014.1 |
| 20260506014332 | 15 | 210 | 1.6 | 3.2 | 0.00 | 0.00 | 0.00 | 38 | 1014.1 |
| 20260506013829 | 15 | 50 | 0.0 | 0.0 | 0.00 | 0.00 | 0.00 | 47 | 1014.3 |
| 20260506013326 | 15 | 62 | 0.0 | 1.6 | 0.00 | 0.00 | 0.00 | 48 | 1014.1 |
| 20260506012823 | 15 | 83 | 0.0 | 0.0 | 0.00 | 0.00 | 0.00 | 45 | 1014.2 |
| 20260506012320 | 16 | 96 | 0.0 | 1.6 | 0.00 | 0.00 | 0.00 | 47 | 1014.3 |
| 20260506011817 | 16 | 85 | 0.0 | 0.0 | 0.00 | 0.00 | 0.00 | 43 | 1014.2 |
| 20260506011314 | 16 | 88 | 0.0 | 0.0 | 0.00 | 0.00 | 0.00 | 44 | 1014.1 |
| 20260506010811 | 16 | 100 | 0.0 | 0.0 | 0.00 | 0.00 | 0.00 | 40 | 1014.3 |
| 20260506010309 | 16 | 100 | 0.0 | 0.0 | 0.00 | 0.00 | 0.00 | 45 | 1014.2 |
| 20260506005806 | 16 | 77 | 0.0 | 0.0 | 0.00 | 0.00 | 0.00 | 44 | 1014.3 |
| 20260506005305 | 16 | 129 | 1.6 | 1.6 | 0.00 | 0.00 | 0.00 | 45 | 1014.4 |
| 20260506004758 | 16 | 112 | 0.0 | 1.6 | 0.00 | 0.00 | 0.00 | 45 | 1014.3 |
| 20260506004256 | 16 | 164 | 1.6 | 1.6 | 0.00 | 0.00 | 0.00 | 43 | 1014.3 |
| 20260506003752 | 16 | 92 | 0.0 | 0.0 | 0.00 | 0.00 | 0.00 | 42 | 1014.3 |
| 20260506003249 | 16 | 113 | 0.0 | 0.0 | 0.00 | 0.00 | 0.00 | 42 | 1014.6 |
| 20260506002745 | 17 | 113 | 0.0 | 0.0 | 0.00 | 0.00 | 0.00 | 43 | 1014.7 |
| 20260506002241 | 17 | 135 | 1.6 | 1.6 | 0.00 | 0.00 | 0.00 | 41 | 1014.6 |
| 20260506001737 | 17 | 128 | 0.0 | 1.6 | 0.00 | 0.00 | 0.00 | 41 | 1014.6 |
| 20260506001235 | 17 | 113 | 0.0 | 0.0 | 0.00 | 0.00 | 0.00 | 38 | 1014.6 |
| 20260506000731 | 17 | 113 | 0.0 | 1.6 | 0.00 | 0.00 | 0.00 | 42 | 1014.7 |
| 20260506000229 | 17 | 126 | 0.0 | 1.6 | 0.00 | 0.00 | 0.00 | 38 | 1014.7 |
| 20260505235726 | 17 | 185 | 1.6 | 1.6 | 0.00 | 0.00 | 0.00 | 41 | 1014.8 |
| 20260505235224 | 18 | 156 | 1.6 | 1.6 | 0.00 | 0.00 | 0.00 | 38 | 1014.8 |
| 20260505234720 | 18 | 144 | 1.6 | 1.6 | 0.00 | 0.00 | 0.00 | 38 | 1014.7 |
| 20260505234218 | 20 | 145 | 1.6 | 1.6 | 0.00 | 0.00 | 0.00 | 33 | 1014.9 |
| 20260505233714 | 20 | 89 | 0.0 | 0.0 | 0.00 | 0.00 | 0.00 | 34 | 1014.9 |
| 20260505233212 | 20 | 67 | 0.0 | 1.6 | 0.00 | 0.00 | 0.00 | 30 | 1015.0 |